Regional Weather Roundup
Issued by NWS Albany, NY

Home | Current Version | Previous Version | Graphics & Text | Print | Product List | Glossary On
Versions: 1 2 3 4 5 6 7 8 9 10 11 12 13 14 15 16 17 18 19 20 21 22 23 24 25 26 27 28 29 30 31 32 33 34 35 36 37 38 39 40 41 42 43 44 45 46 47 48 49 50
000
ASUS41 KALY 300010
RWRALY

NEW YORK STATE HOURLY WEATHER ROUNDUP
NATIONAL WEATHER SERVICE ALBANY NY
800 PM EDT WED JUL 29 2015

NOTE: "FAIR" INDICATES FEW OR NO CLOUDS BELOW 12,000 FEET WITH NO
SIGNIFICANT WEATHER AND/OR NO OBSTRUCTIONS TO VISIBILITY.

NYZ032-033-038>043-046>054-057>066-NYZ062>081-300100-
EAST


CITY           SKY/WX    TMP DP  RH WIND       PRES   REMARKS
ALBANY         PTCLDY    88  63  43 S7        29.89R
GLENS FALLS    CLEAR     82  65  56 SW3       29.88R
POUGHKEEPSIE   CLEAR     86  67  52 CALM      29.89S
NEWBURGH       PTCLDY    86  66  51 W7        29.93S
MONTGOMERY     CLEAR     82  70  66 CALM      29.92R
WHITE PLAINS   PTCLDY    83  68  60 S7        29.92S
ISLIP          PTCLDY    81  70  69 SW9       29.92R
NEW YORK CITY  MOCLDY    88  69  53 S12       29.90S HX  92
CENTRAL PARK   CLEAR     87  69  54 VRB3      29.94R HX  91
$$

NYZ005>009-017-018-044>046-055-056-300100-
CENTRAL


CITY           SKY/WX    TMP DP  RH WIND       PRES   REMARKS
FULTON         PTCLDY    81  70  69 CALM      29.87F
SYRACUSE       MOCLDY    86  64  47 S6        29.87S
ROME           CLEAR     83  70  64 CALM      29.90S
ELMIRA         PTCLDY    78  69  73 NW3       29.91S
BINGHAMTON     PTCLDY    78  65  63 SW6       29.97S
MONTICELLO     CLEAR     81  64  57 S6        29.99S
$$

NYZ026>034-041>043-300100-
NORTH


CITY           SKY/WX    TMP DP  RH WIND       PRES   REMARKS
WATERTOWN      CLEAR     81  66  60 CALM      29.87S
FORT DRUM      NOT AVBL
MASSENA        CLEAR     81  67  62 SW7       29.85S
SARANAC LAKE   CLEAR     80  64  58 CALM      29.93R
PLATTSBURGH    PTCLDY    73  71  93 N3        29.85S
$$

NYZ001>004-010>016-019>021-300100-
WEST


CITY           SKY/WX    TMP DP  RH WIND       PRES   REMARKS
NIAGARA FALLS  CLOUDY    85  62  46 SW13      29.86S
BUFFALO        MOCLDY    86  57  37 SW8       29.88R
DUNKIRK        PTCLDY    81  70  69 W3        29.90R
JAMESTOWN      PTCLDY    79  66  65 NW6       29.97R
WELLSVILLE     PTCLDY    80  65  59 S6        29.99F
ROCHESTER      MOCLDY    85  65  51 S5        29.87S
PENN YAN       CLEAR     80  67  64 S3        29.91F
$$

             KEY
       WCI = WIND CHILL INDEX
       VSB = VISIBILITY
       HX  = HEAT INDEX
$$


USA.gov is the U.S. government's official web portal to all federal, state and local government web resources and services.